Wells Municipal-Harriet, NV

11:15 AM PDT on October 20, 2014 (GMT -0700)
MesoWest WELLS/MOOR GRADE NV US NV DOT | Change Station
CLOSE
Current Station
Personal Weather Station
Location: Wells, NV
Elevation: 5875 ft
Nearby Weather Stations

Elev 5875 ft 41.10 °N, 114.91 °W | Updated 46 minutes ago

Partly Cloudy
Partly Cloudy
65 °F
Feels Like 65 °F
N
17
Wind Variable Wind from SSE
Gusts 24.0 mph

Today
High -- | Low -- °F
--% Chance of Precip.
Yesterday
High -- | Low -- °F
Precip. -- in
6:56 AM 5:51 PM
Waning Crescent, 10% visible
Pressure 29.89 in
Visibility 10.0 miles
Clouds Clear
Dew Point 32 °F
Humidity 29%
Rainfall -999.00 in
Snow Depth Not available.
UV 4 out of 12
Pollen 3.50 out of 12
Air Quality Not available.
Flu Activity No Activity
METAR KEKO 201756Z AUTO 00000KT 10SM CLR 21/00 A3000 RMK AO2 SLP120 T02060000 10206 20033 58013

More Conditions Fewer Conditions

Pressure 29.89 in
Visibility 10.0 miles
Clouds Clear
Dew Point 32 °F
Humidity 29%
Rainfall -999.00 in
Snow Depth Not available.
UV 4 out of 12
Pollen 3.50 out of 12
Air Quality Not available.
Flu Activity No Activity
METAR KEKO 201756Z AUTO 00000KT 10SM CLR 21/00 A3000 RMK AO2 SLP120 T02060000 10206 20033 58013

More Conditions Fewer Conditions

10-Day Weather Forecast

Almanac

Astronomy

Oct. 20, 2014 Rise Set
Actual Time 6:56 AM PDT 5:51 PM PDT
Civil Twilight 6:28 AM PDT 6:19 PM PDT
Nautical Twilight 5:56 AM PDT 6:51 PM PDT
Astronomical Twilight 5:24 AM PDT 7:23 PM PDT
Moon 3:47 AM PDT 4:17 PM PDT
Length of Visible Light 11h 50m
Length of Day
10h 54m
Waning Crescent, 10% of the Moon is Illuminated
Today
Waning Crescent
Oct 23
New
Oct 30
First Quarter
Nov 6
Full
Nov 14
Last Quarter

Today's Extremes

State Highs State Lows

Community

WunderPhotos

Upload Photos

1,763,456 photos uploaded!

Nearby

Snow Depth

Station Depth Elevation
Dorsey Basin 0 in 8100 ft
Draw Creek 0 in 7200 ft
Seventysix Creek 1 in 7100 ft
Taylor Canyon 2 in 6200 ft
Bear Creek 0 in 7800 ft

Earthquake Activity

City Distance Mag. Time & Date
No recent earthquake activity has been reported nearby.
Minimum magnitude displayed is 2.5.

Coastal Water Temperatures

Place Temperature
No Stations Reporting

Nearby Weather Stations